AirNav   Air Wisconsin pilot careers
 
 537 users online  

NE01 Schutte Airport
Guide Rock, Nebraska, USA


FAA INFORMATION EFFECTIVE 12 OCTOBER 2017

Location

FAA Identifier: NE01
Lat/Long: 40-11-41.0460N / 098-21-07.1890W
40-11.684100N / 098-21.119817W
40.1947350 / -98.3519969
(estimated)
Elevation: 1876 ft. / 571.8 m (surveyed)
Variation: 07E (1985)
From city: 8 miles NW of GUIDE ROCK, NE
Time zone: UTC -5 (UTC -6 during Standard Time)
Zip code: 68942

Airport Operations

Airport use: Private use. Permission required prior to landing
Activation date: 11/1954
Control tower: no
ARTCC: MINNEAPOLIS CENTER
FSS: COLUMBUS FLIGHT SERVICE STATION
Attendance: UNATNDD
Wind indicator: no
Segmented circle: no

Nearby radio navigation aids

VOR radial/distance  VOR name  Freq  Var
TKOr340/23.7MANKATO VORTAC109.8010E
HSIr165/24.8HASTINGS VOR/DME108.8007E

 
NDB name  Hdg/Dist  Freq  Var  ID
HEBRON268/35.132306EHJH .... .--- ....

Airport Services

Airframe service: NONE
Powerplant service: NONE

Runway Information

Runway NW/SE

Dimensions: 2500 x 125 ft. / 762 x 38 m
Surface: turf
RUNWAY NW  RUNWAY SE
Traffic pattern: leftleft

Airport Ownership and Management from official FAA records

Ownership: Privately-owned
Owner: MRS ALFRED SCHUTTE
GUIDE ROCK, NE 68942
Phone (402) 756-3462
Manager: RON SCHUTTE
1417 ROAD 2100
GUIDE ROCK, NE 68942
Phone 402-756-3462

Instrument Procedures

There are no published instrument procedures at NE01.

Some nearby airports with instrument procedures:

7V7 - Red Cloud Municipal Airport (11 nm SW)
12K - Superior Municipal Airport (16 nm SE)
KHSI - Hastings Municipal Airport (25 nm N)
08K - Harvard State Airport (30 nm NE)
K82 - Smith Center Municipal Airport (33 nm SW)
 
Loc | Ops | Rwys | IFR | FBO | Links
Com | Nav | Svcs | Stats | Notes

Silverhawk Aviation, Inc.
AirBoss

 
Area around NE01 (Schutte Airport)
 
Road maps at: MapQuest Bing Google
 
Aerial photo
No photo
 
Sectional chart

 
Airport distance calculator
Flying to Schutte Airport? Find the distance to fly.

From to NE01

Sunrise and sunset
Times for 18-Oct-2017
 Local
(UTC-5)
 Zulu
(UTC)
Morning civil twilight07:2112:21
Sunrise07:4812:48
Sunset18:4923:49
Evening civil twilight19:1600:16

Current date and time
Zulu (UTC)  19-Oct-2017 04:57:20
Local (UTC-5)  18-Oct-2017 23:57:20
 
METAR
KHSI 
25nm N 
190453Z AUTO 00000KT 10SM CLR 09/03 A3009 RMK AO2 SLP185 T00890033
KHJH 
35nm E 
190435Z AUTO 00000KT 10SM CLR 12/06 A3005 RMK AO2 T01240060
KEAR 
43nm NW 
190356Z AUTO 32006KT 10SM CLR 09/03 A3009 RMK AO2 SLP187 T00940028
KAUH 
44nm N 
190435Z AUTO 35006KT 10SM CLR 08/04 A3008 RMK AO2 T00780038
KGRI 
46nm N 
190453Z AUTO 30003KT 10SM CLR 08/04 A3009 RMK AO2 SLP190 T00830044
KHDE 
47nm W 
190435Z AUTO 00000KT 10SM CLR 07/03 A3009 RMK AO2 T00670031
TAF
KEAR 
43nm NW 
181900Z 1819/1918 36016G23KT P6SM FEW250 FM190000 02007KT P6SM SKC FM190500 VRB03KT P6SM SKC FM191600 15007KT P6SM SKC
KGRI 
46nm N 
182158Z 1822/1918 36014G22KT P6SM FEW250 FM190000 01007KT P6SM SKC FM190300 VRB03KT P6SM SKC
NOTAMs
Click for the latest NOTAMs
NOTAMs are issued by the DoD/FAA and will open in a separate window not controlled by AirNav.

 

 
 

Would you like to see your business listed on this page?

 If your business provides an interesting product or service to pilots, flight crews, aircraft, or users of the Schutte Airport, you should consider listing it here.  To start the listing process, click on the button below
 
Add a business
 

Other Pages about Schutte Airport

Update a link
 
Copyright © AirNav, LLC. All rights reserved. Privacy Policy  Contact